Temp
-12 -12 -12 -12 -12 -13 -13 -13 -13 -13 -13 -13 -13 -12 -12 -11 -12 -13 -13 -13 -12 -12 -12 -12 -12 -12 -12 -12 -11 -12 -12 -12
-11 -12 -12 -13 -14 -14 -14 -13 -13 -13 -13 -12 -13 -13 -12 -11 -11 -12 -13 -13 -13 -13 -13 -12 -13 -13 -12 -11 -12 -13 -12 -12
-12 -12 -12 -13 -13 -13 -13 -13 -12 -12 -12 -12 -13 -12 -12 -12 -12 -12 -13 -12 -13 -13 -13 -13 -13 -13 -12 -12 -13 -12 -12 -12
-12 -12 -12 -12 -12 -12 -12 -13 -12 -12 -12 -12 -12 -12 -12 -12 -12 -12 -13 -12 -13 -13 -13 -12 -13 -12 -14 -13 -13 -12 -12 -12
-11 -11 -12 -12 -12 -11 -11 -11 -12 -12 -12 -12 -12 -12 -11 -11 -12 -12 -12 -12 -12 -12 -13 -12 -12 -15 -14 -13 -12 -12 -12 -12
-11 -11 -11 -12 -11 -11 -11 -11 -11 -12 -12 -12 -12 -11 -11 -12 -12 -12 -12 -12 -12 -12 -12 -12 -13 -13 -12 -12 -12 -12 -12 -12
-11 -11 -10 -11 -11 -11 -11 -12 -11 -11 -11 -12 -12 -12 -11 -11 -12 -12 -12 -12 -12 -12 -12 -12 -13 -13 -12 -12 -12 -12 -12 -12
-12 -11 -10 -10 -11 -11 -11 -12 -12 -12 -11 -11 -11 -12 -11 -11 -12 -12 -12 -12 -12 -13 -12 -12 -13 -13 -13 -12 -12 -12 -12 -12
-12 -11 -11 -11 -11 -11 -11 -11 -11 -11 -11 -10 -10 -12 -12 -12 -11 -12 -12 -12 -12 -12 -11 -13 -12 -13 -13 -12 -12 -12 -12 -12
-12 -12 -11 -11 -11 -11 -11 -12 -11 -10 -10 -9 -11 -11 -11 -11 -11 -13 -12 -12 -11 -11 -12 -12 -12 -13 -13 -12 -12 -12 -12 -12
-12 -12 -11 -11 -11 -11 -11 -11 -11 -12 -11 -11 -11 -11 -10 -11 -11 -12 -12 -11 -11 -12 -13 -13 -12 -12 -13 -13 -13 -13 -13 -13
-13 -12 -12 -12 -11 -11 -11 -11 -11 -11 -12 -11 -11 -11 -11 -11 -11 -12 -11 -10 -11 -11 -12 -12 -12 -12 -13 -13 -13 -13 -13 -13
-13 -12 -12 -12 -12 -11 -11 -12 -11 -11 -11 -11 -11 -11 -11 -11 -11 -12 -12 -12 -12 -12 -12 -12 -12 -12 -12 -13 -13 -13 -13 -13
-13 -13 -12 -12 -12 -12 -11 -11 -12 -12 -12 -11 -11 -11 -11 -11 -11 -12 -12 -13 -12 -12 -12 -12 -12 -12 -13 -13 -13 -13 -13 -13
-13 -13 -13 -13 -12 -12 -11 -12 -12 -12 -11 -11 -11 -11 -11 -11 -12 -12 -12 -12 -12 -12 -12 -12 -12 -12 -12 -13 -13 -13 -13 -13
-13 -13 -13 -13 -12 -12 -12 -12 -12 -12 -12 -11 -12 -11 -11 -11 -12 -12 -12 -12 -12 -12 -12 -12 -12 -12 -12 -13 -13 -13 -14 -14
-14 -14 -13 -13 -13 -12 -12 -12 -12 -12 -11 -12 -12 -12 -12 -12 -12 -12 -12 -12 -12 -12 -12 -13 -13 -13 -13 -13 -13 -13 -14 -14
-14 -14 -13 -13 -13 -12 -13 -12 -12 -13 -12 -11 -12 -12 -12 -12 -12 -12 -12 -12 -12 -12 -13 -13 -13 -13 -13 -13 -14 -14 -14 -15
-14 -14 -14 -13 -13 -13 -13 -13 -12 -13 -13 -12 -12 -12 -12 -12 -12 -12 -12 -12 -13 -13 -13 -13 -13 -13 -13 -14 -14 -14 -15 -14
-14 -14 -14 -13 -13 -13 -13 -13 -13 -13 -13 -13 -13 -13 -12 -13 -13 -13 -12 -13 -13 -13 -13 -13 -13 -13 -14 -14 -14 -14 -15 -15
Height
5768 5766 5764 5761 5759 5758 5757 5757 5757 5757 5756 5759 5766 5769 5775 5774 5778 5780 5787 5792 5797 5800 5804 5806 5812 5817 5820 5819 5823 5825 5827 5830
5764 5762 5760 5757 5754 5751 5749 5746 5748 5748 5750 5753 5756 5764 5767 5768 5773 5776 5783 5787 5793 5797 5801 5803 5808 5813 5813 5815 5819 5823 5826 5828
5760 5758 5755 5752 5749 5747 5743 5741 5738 5743 5743 5748 5753 5762 5762 5757 5771 5774 5778 5781 5789 5793 5795 5798 5804 5809 5810 5811 5816 5822 5824 5826
5756 5753 5749 5746 5744 5741 5740 5738 5735 5736 5738 5741 5745 5752 5759 5763 5768 5771 5775 5778 5786 5788 5792 5796 5801 5805 5807 5809 5816 5819 5821 5823
5755 5751 5746 5741 5738 5736 5736 5734 5732 5733 5734 5737 5741 5747 5750 5758 5764 5767 5772 5776 5781 5784 5789 5793 5799 5802 5805 5809 5814 5817 5818 5820
5751 5747 5741 5737 5733 5732 5731 5729 5728 5726 5727 5729 5733 5739 5745 5752 5760 5766 5769 5774 5778 5781 5786 5791 5795 5801 5803 5808 5812 5813 5814 5816
5746 5742 5736 5731 5728 5726 5726 5724 5721 5719 5718 5718 5723 5728 5735 5745 5756 5761 5766 5771 5772 5777 5785 5789 5795 5800 5801 5806 5808 5809 5811 5813
5741 5736 5731 5726 5723 5721 5721 5719 5712 5708 5705 5710 5715 5723 5729 5740 5751 5759 5763 5768 5770 5775 5781 5786 5791 5798 5799 5804 5805 5806 5807 5808
5736 5732 5727 5722 5719 5718 5716 5713 5707 5702 5700 5705 5712 5720 5729 5739 5748 5756 5761 5765 5768 5772 5778 5782 5789 5795 5796 5799 5802 5804 5804 5804
5732 5729 5724 5720 5717 5716 5714 5711 5707 5703 5702 5703 5711 5720 5729 5738 5746 5752 5757 5762 5766 5770 5775 5778 5785 5792 5793 5795 5797 5800 5800 5800
5727 5724 5721 5717 5715 5714 5711 5709 5706 5706 5707 5711 5715 5721 5729 5737 5743 5749 5753 5759 5764 5767 5771 5775 5781 5787 5789 5791 5794 5795 5795 5795
5723 5721 5717 5713 5713 5712 5709 5708 5707 5706 5711 5713 5715 5722 5727 5733 5739 5745 5751 5756 5760 5762 5767 5773 5776 5780 5784 5786 5787 5789 5790 5789
5720 5719 5715 5711 5710 5710 5707 5704 5705 5705 5706 5708 5714 5718 5724 5731 5737 5744 5748 5754 5757 5757 5762 5766 5770 5775 5778 5782 5781 5780 5781 5782
5718 5716 5712 5709 5707 5705 5706 5703 5701 5702 5703 5706 5712 5717 5721 5728 5734 5742 5745 5749 5753 5753 5757 5761 5765 5769 5772 5774 5776 5776 5775 5772
5715 5713 5710 5707 5704 5703 5703 5702 5700 5700 5701 5705 5708 5714 5719 5724 5730 5735 5739 5744 5748 5749 5752 5757 5761 5763 5766 5768 5767 5767 5766 5767
5712 5711 5709 5705 5702 5700 5700 5700 5698 5699 5700 5702 5706 5711 5717 5721 5725 5729 5735 5740 5743 5745 5748 5752 5755 5757 5759 5760 5759 5758 5758 5759
5709 5708 5707 5704 5701 5698 5698 5699 5698 5697 5698 5700 5704 5707 5712 5716 5720 5725 5730 5734 5737 5740 5743 5746 5748 5750 5751 5751 5751 5751 5752 5753
5706 5706 5704 5703 5700 5697 5696 5697 5696 5696 5698 5697 5701 5704 5708 5711 5716 5722 5725 5727 5728 5734 5737 5740 5742 5743 5743 5744 5744 5745 5746 5748
5703 5703 5701 5701 5699 5697 5695 5694 5695 5695 5696 5696 5699 5701 5705 5709 5712 5716 5719 5721 5726 5728 5730 5732 5734 5735 5736 5737 5738 5739 5741 5743
5698 5699 5699 5698 5696 5696 5694 5693 5693 5693 5694 5695 5697 5698 5699 5705 5708 5710 5712 5715 5718 5720 5722 5724 5726 5727 5730 5731 5732 5734 5735 5737
Wind_Speed
26 24 19 14 18 21 26 30 33 33 35 37 39 30 36 29 38 34 31 30 26 26 31 31 33 29 25 28 24 17 17 16
24 21 20 17 21 19 26 34 35 36 36 32 28 24 32 31 30 30 29 27 28 29 33 32 31 35 31 30 20 17 18 17
26 24 21 22 23 14 12 17 25 26 29 27 25 22 35 23 28 32 30 27 28 31 35 31 34 38 28 20 17 16 16 13
27 26 23 23 20 18 15 16 19 21 23 24 27 23 39 39 32 30 31 31 26 29 33 28 33 31 21 20 14 14 14 11
24 26 24 24 22 19 15 13 15 20 26 30 31 32 36 35 34 35 36 31 23 28 27 25 26 20 20 18 13 14 13 10
26 24 26 24 22 20 16 12 13 21 28 30 30 32 34 40 42 31 33 28 28 27 30 27 20 21 20 16 16 15 13 11
25 27 26 23 19 18 14 14 16 20 27 32 32 34 40 44 46 23 26 31 24 32 32 21 22 24 20 20 18 17 12 11
25 28 23 22 17 16 13 12 15 22 25 30 33 36 42 53 47 26 29 30 23 24 29 26 25 23 23 20 17 16 15 15
26 26 22 20 14 14 11 8 16 9 14 22 42 52 46 46 35 31 32 28 27 25 27 29 27 24 25 20 19 18 19 16
26 25 19 14 11 12 10 7 13 9 7 27 36 45 42 39 37 31 35 31 29 30 33 35 30 27 26 25 25 22 20 17
24 24 17 10 9 11 9 6 4 13 12 22 38 41 46 40 28 31 33 31 29 27 31 30 28 28 29 29 28 24 23 22
23 22 20 12 9 12 10 6 4 1 2 33 39 52 48 36 24 30 29 33 31 24 24 31 33 30 30 31 32 30 29 29
22 22 19 13 10 12 12 8 5 5 4 13 45 46 43 43 27 28 32 28 24 22 26 29 35 34 33 33 35 35 35 34
20 20 18 13 12 11 13 9 5 3 10 13 37 47 53 47 33 30 26 25 19 20 22 24 28 31 37 37 37 37 37 32
17 17 17 13 12 11 11 9 6 3 13 23 24 42 48 47 30 28 25 25 19 19 19 22 25 29 34 29 29 25 29 25
15 15 15 12 10 13 12 11 3 3 15 22 33 36 44 47 36 30 30 30 26 24 23 23 26 26 29 29 31 31 32 27
13 13 13 9 9 11 12 14 7 5 8 20 32 36 43 45 37 35 42 34 30 29 29 26 27 27 27 34 36 32 25 24
13 12 12 8 6 6 7 11 12 9 9 13 14 23 24 30 40 34 29 33 38 34 33 25 26 28 29 33 28 25 24 27
12 13 13 11 5 3 4 8 11 13 12 13 13 16 26 25 24 28 31 26 33 31 34 33 34 29 30 28 27 25 24 26
10 12 12 13 8 6 4 5 7 11 15 16 17 17 16 17 22 25 30 30 31 32 34 40 34 30 26 26 28 28 28 29
Wind_Direction
309 304 300 295 288 276 261 248 250 251 255 257 239 243 236 207 216 210 219 222 218 224 222 217 215 214 202 208 217 236 242 248
309 299 292 272 316 283 272 252 248 249 250 253 249 244 210 198 212 209 207 209 217 221 226 225 226 208 208 212 210 222 234 238
315 310 291 282 298 306 296 270 258 249 249 246 245 220 201 180 204 206 204 204 214 222 231 235 221 214 211 205 216 226 231 238
314 316 304 291 293 287 299 304 273 258 247 228 219 227 215 217 217 216 218 211 222 225 235 236 234 209 200 213 213 225 230 240
307 315 312 294 286 284 288 295 275 242 238 239 242 230 213 216 209 211 212 219 233 227 233 242 203 188 202 216 216 225 229 238
304 313 309 296 277 274 276 276 282 261 257 246 228 213 214 199 201 202 213 221 223 218 222 200 180 196 209 220 222 232 239 246
308 303 305 300 271 272 267 265 292 279 253 244 229 225 216 201 201 204 209 214 203 215 209 204 197 207 216 225 226 233 236 244
317 310 306 303 274 270 273 272 314 280 253 232 216 203 186 190 203 212 201 207 201 205 205 213 217 216 223 229 234 236 240 240
323 320 310 305 271 271 275 303 334 271 207 200 194 178 182 192 200 205 209 208 213 212 215 213 226 222 231 235 241 238 239 241
326 320 309 309 271 272 269 284 353 221 223 202 184 179 189 198 207 208 211 208 212 222 219 223 233 233 236 243 243 244 247 254
330 318 314 310 268 263 272 271 351 346 198 169 185 184 190 201 212 213 203 207 214 213 217 222 229 236 238 246 251 253 261 262
327 318 317 310 273 259 264 250 236 215 207 216 204 189 195 202 216 206 204 208 213 213 221 228 233 240 246 249 255 259 264 265
320 316 320 303 273 256 258 254 236 200 243 196 199 191 198 207 219 209 203 211 220 217 230 239 241 246 247 251 256 262 262 266
312 312 317 304 277 254 251 246 234 250 194 201 199 206 208 205 217 214 203 213 225 226 235 239 244 248 252 256 267 268 268 269
303 306 312 313 267 241 241 230 247 267 207 213 203 205 203 211 202 203 210 221 231 237 236 241 251 252 253 263 259 254 256 252
292 297 304 315 277 238 222 222 197 207 205 212 204 215 217 217 214 218 221 229 242 243 238 246 258 258 246 255 242 243 251 247
277 284 295 303 303 238 221 213 198 166 183 202 208 224 219 214 222 236 232 234 241 238 232 251 257 250 245 248 249 248 239 228
264 266 282 292 298 285 220 212 201 170 182 181 199 204 218 225 227 229 234 238 241 248 238 246 247 251 247 242 232 229 222 219
251 252 264 274 283 268 226 202 208 205 190 152 155 195 213 215 223 231 233 220 228 234 242 244 247 238 232 231 230 219 226 233
243 248 254 260 248 242 225 197 206 217 215 210 194 177 157 181 215 227 229 226 230 231 238 245 230 225 227 222 222 221 224 228